Le nostre stazioni meteo in Italia

Pubblicità
Il mio iltempo24.it
Siracusa, Italia (16464): Temperatura & dewpoint: 07.12.2018 22:00:00 - 13.12.2018 22:00:00 (CET)Siracusa, Italia (16464): velocità del vento: 07.12.2018 22:00:00 - 13.12.2018 22:00:00 (CET)Siracusa, Italia (16464): direzione del vento: 07.12.2018 22:00:00 - 13.12.2018 22:00:00 (CET)Siracusa, Italia (16464): reduced air pressure: 07.12.2018 22:00:00 - 13.12.2018 22:00:00 (CET)Siracusa, Italia (16464): precipitazioni: 07.12.2018 22:00:00 - 13.12.2018 22:00:00 (CET)
Data & Tempo tt [°C] td [°C] ff [km/h] ff [kn] dd ppp [hPa] rr [mm]
13.12.2018 22:00:00 - - - - - - -
13.12.2018 21:00:00 - - - - - - -
13.12.2018 20:00:00 - - - - - - -
13.12.2018 19:00:00 - - - - - - 0,0
13.12.2018 18:00:00 - - - - - - -
13.12.2018 17:00:00 - - - - - - -
13.12.2018 16:00:00 - - - - - - -
13.12.2018 15:00:00 - - - - - - -
13.12.2018 14:00:00 - - - - - - -
13.12.2018 13:00:00 - - - - - - 0,0
13.12.2018 12:00:00 - - - - - - -
13.12.2018 11:00:00 - - - - - - -
13.12.2018 10:00:00 - - - - - - -
13.12.2018 09:00:00 - - - - - - -
13.12.2018 08:00:00 - - - - - - -
13.12.2018 07:00:00 - - - - - - 0,0
13.12.2018 06:00:00 - - - - - - -
13.12.2018 05:00:00 - - - - - - -
13.12.2018 04:00:00 - - - - - - -
13.12.2018 03:00:00 - - - - - - -
13.12.2018 02:00:00 - - - - - - -
13.12.2018 01:00:00 - - - - - - 0,0
13.12.2018 00:00:00 - - - - - - -
12.12.2018 23:00:00 - - - - - - -
12.12.2018 22:00:00 - - - - - - -
12.12.2018 21:00:00 - - - - - - -
12.12.2018 20:00:00 - - - - - - -
12.12.2018 19:00:00 - - - - - - 0,0
12.12.2018 18:00:00 - - - - - - -
12.12.2018 17:00:00 - - - - - - -
12.12.2018 16:00:00 - - - - - - -
12.12.2018 15:00:00 - - - - - - -
12.12.2018 14:00:00 - - - - - - -
12.12.2018 13:00:00 - - - - - - 0,0
12.12.2018 12:00:00 - - - - - - -
12.12.2018 11:00:00 - - - - - - -
12.12.2018 10:00:00 - - - - - - -
12.12.2018 09:00:00 - - - - - - -
12.12.2018 08:00:00 - - - - - - -
12.12.2018 07:00:00 - - - - - - 0,0
12.12.2018 06:00:00 - - - - - - -
12.12.2018 05:00:00 8,3 2,5 - - - 1019,2 -
12.12.2018 04:00:00 9,5 4,2 - - - 1019,2 -
12.12.2018 03:00:00 9,3 4,3 4 2 SSO 1019,4 -
12.12.2018 02:00:00 8,9 3,5 5 3 SSO 1019,3 -
12.12.2018 01:00:00 9,7 3,8 5 3 SSO 1019,2 0,0
12.12.2018 00:00:00 10,5 4,1 4 2 SSO 1019,4 -
11.12.2018 23:00:00 11,0 3,9 5 3 SSO 1019,6 -
11.12.2018 22:00:00 11,3 3,7 5 3 SSO 1019,3 -
11.12.2018 21:00:00 11,9 3,6 4 2 SSO 1018,9 -
11.12.2018 20:00:00 14,0 4,2 4 2 OSO 1018,6 -
11.12.2018 19:00:00 13,9 3,6 4 2 OSO 1018,6 -
11.12.2018 18:00:00 13,4 2,8 5 3 SSO 1018,1 -
11.12.2018 17:00:00 15,5 3,2 8 4 OSO 1017,5 -
11.12.2018 16:00:00 16,6 3,2 15 8 O 1017,3 -
11.12.2018 15:00:00 - - - - - - -
11.12.2018 14:00:00 - - - - - - -
11.12.2018 13:00:00 17,4 1,7 - - - - -
11.12.2018 12:00:00 17,7 0,7 - - - - -
11.12.2018 11:00:00 17,1 3,7 - - - - -
11.12.2018 10:00:00 15,5 4,1 - - - - -
11.12.2018 09:00:00 - - - - - - -
11.12.2018 08:00:00 - - - - - - -
11.12.2018 07:00:00 - - - - - - -
11.12.2018 06:00:00 - - - - - - -
11.12.2018 05:00:00 - - - - - - -
11.12.2018 04:00:00 - - - - - - -
11.12.2018 03:00:00 - - - - - - -
11.12.2018 02:00:00 - - - - - - -
11.12.2018 01:00:00 - - - - - - -
11.12.2018 00:00:00 - - - - - - -
10.12.2018 23:00:00 - - - - - - -
10.12.2018 22:00:00 - - - - - - -
10.12.2018 21:00:00 - - - - - - -
10.12.2018 20:00:00 - - - - - - -
10.12.2018 19:00:00 - - - - - - -
10.12.2018 18:00:00 - - - - - - -
10.12.2018 17:00:00 - - - - - - -
10.12.2018 16:00:00 - - - - - - -
10.12.2018 15:00:00 - - - - - - -
10.12.2018 14:00:00 19,8 5,0 - - - 1014,6 -
10.12.2018 13:00:00 19,6 4,4 - - - 1014,9 0,0
10.12.2018 12:00:00 19,6 5,6 - - - 1015,5 -
10.12.2018 11:00:00 18,3 4,7 - - - 1015,9 -
10.12.2018 10:00:00 17,6 5,8 - - - 1015,6 -
10.12.2018 09:00:00 16,4 5,9 - - - 1015,0 -
10.12.2018 08:00:00 14,8 6,0 - - - 1014,4 -
10.12.2018 07:00:00 14,7 5,9 - - - 1014,1 0,0
10.12.2018 06:00:00 14,9 6,6 - - - 1014,1 -
10.12.2018 05:00:00 15,1 8,0 - - - 1013,3 -
10.12.2018 04:00:00 14,9 9,0 - - - 1013,6 -
10.12.2018 03:00:00 15,9 7,8 - - - 1013,9 -
10.12.2018 02:00:00 13,5 7,2 - - - 1014,8 -
10.12.2018 01:00:00 14,8 7,8 - - - 1015,1 0,0
10.12.2018 00:00:00 15,0 8,6 - - - 1015,3 -
09.12.2018 23:00:00 14,5 7,7 - - - 1015,7 -
09.12.2018 22:00:00 15,5 8,7 - - - 1016,1 -
09.12.2018 21:00:00 15,9 8,3 - - - 1016,3 -
09.12.2018 20:00:00 14,9 8,1 - - - 1016,3 -
09.12.2018 19:00:00 15,3 8,7 - - - 1015,6 0,0
09.12.2018 18:00:00 16,1 9,0 - - - 1015,9 -
09.12.2018 17:00:00 16,9 7,7 - - - 1016,0 -
09.12.2018 16:00:00 19,0 7,0 - - - 1016,6 -
09.12.2018 15:00:00 19,4 6,8 - - - 1016,9 -
09.12.2018 14:00:00 20,2 6,8 - - - 1017,1 -
09.12.2018 13:00:00 19,7 6,0 - - - 1017,6 0,0
09.12.2018 12:00:00 19,1 6,2 - - - 1018,5 -
09.12.2018 11:00:00 18,1 6,5 - - - 1019,4 -
09.12.2018 10:00:00 16,4 8,8 - - - 1020,1 -
09.12.2018 09:00:00 12,4 6,8 - - - 1019,9 -
09.12.2018 08:00:00 10,3 4,2 - - - 1019,6 -
09.12.2018 07:00:00 10,1 4,0 - - - 1018,9 0,0
09.12.2018 06:00:00 10,2 3,6 - - - 1018,7 -
09.12.2018 05:00:00 10,0 3,7 - - - 1018,1 -
09.12.2018 04:00:00 10,4 3,4 - - - 1017,9 -
09.12.2018 03:00:00 12,5 4,4 - - - 1018,1 -
09.12.2018 02:00:00 12,6 4,0 - - - 1018,1 -
09.12.2018 01:00:00 13,7 4,7 - - - 1017,7 0,0
09.12.2018 00:00:00 13,4 4,5 - - - 1017,9 -
08.12.2018 23:00:00 13,7 4,7 - - - 1018,0 -
08.12.2018 22:00:00 14,6 7,1 - - - 1017,9 -
08.12.2018 21:00:00 14,4 7,4 - - - 1017,4 -
08.12.2018 20:00:00 14,5 8,2 - - - 1017,0 -
08.12.2018 19:00:00 15,7 9,3 - - - 1016,5 0,0
08.12.2018 18:00:00 15,8 9,9 - - - 1015,9 -
08.12.2018 17:00:00 17,6 10,2 - - - 1015,8 -
08.12.2018 16:00:00 18,7 10,0 - - - 1015,7 -
08.12.2018 15:00:00 20,2 9,7 - - - 1016,0 -
08.12.2018 14:00:00 20,1 9,9 - - - 1016,3 -
08.12.2018 13:00:00 20,1 9,9 - - - 1016,5 0,0
08.12.2018 12:00:00 19,4 9,5 - - - 1017,5 -
08.12.2018 11:00:00 18,8 10,3 - - - 1019,2 -
08.12.2018 10:00:00 16,4 12,5 - - - 1019,2 -
08.12.2018 09:00:00 12,6 9,9 - - - 1019,6 -
08.12.2018 08:00:00 10,1 7,3 - - - 1019,7 -
08.12.2018 07:00:00 10,2 7,4 - - - 1019,5 0,0
08.12.2018 06:00:00 9,3 6,7 - - - 1019,6 -
08.12.2018 05:00:00 8,6 5,7 - - - 1019,6 -
08.12.2018 04:00:00 8,2 5,1 - - - 1020,0 -
08.12.2018 03:00:00 8,6 5,5 - - - 1020,5 -
08.12.2018 02:00:00 8,6 5,7 - - - 1020,9 -
08.12.2018 01:00:00 8,9 5,8 - - - 1021,0 0,0
08.12.2018 00:00:00 9,3 6,2 - - - 1021,3 -
07.12.2018 23:00:00 9,7 6,4 - - - 1021,8 -
07.12.2018 22:00:00 10,0 6,3 - - - 1022,4 -

tt = Temperatura
td = dewpoint
ff = velocità del vento
dd = direzione del vento
ppp = reduced air pressure
rr = precipitazioni

Stazioni seguenti

WeatherPro
AMSI
MeteoEarth